ASTRA 1M

Last updated on Sun Jun 21 2026 00:03:04 GMT+0000 (Coordinated Universal Time)

1 33436U 08057A 26171.32452803 .00000116 00000+0 00000+0 0 9999 2 33436 0.3056 82.5193 0004908 26.1383 296.0779 1.00273362 45763
UTC large
Height (km)
Speed (km/s)
/
Latitude / Longitude
Inclination (degrees)
Orbital Period (minutes)
Azimuth
Elevation
Range (km)
Doppler Factor

Next 0 passes for location: London (51.5072 / 0.1276)

No passes found over London.
ASTRA 1M